User: anonymous   Login
Location: Unspecified
(0.0000°N, 0.0000°E)
Time: 00:09:33
(UTC+00:00)
Language:

STARLINK-35731 - Orbit

View from above orbital plane
View from above orbital plane
View from above satellite
View from above satellite

Ground track
Ground track

The orbit is defined by the following mean orbital elements,

1 66228U          26145.58335647 +.00000000 +00000-0 +60187-3 0 00001
2 66228  53.1607 232.5873 0001688  91.5285 299.2626 15.33533880    06
Epoch (UTC): 25 May 2026 14:00:01
Eccentricity: 0.0001688
inclination: 53.1607°
perigee height: 464 km
apogee height: 466 km
right ascension of ascending node: 232.5873°
argument of perigee: 91.5285°
revolutions per day: 15.33533880
mean anomaly at epoch: 299.2626°

The dashed part of the orbit path shows where the satellite is in the earth's shadow,  

DLR